When you browse on this site, cookies collect data to enhance your experience and personalize the content and advertising you see.
Visit our Privacy Policy to learn more. By continuing to use the site, you agree to this use of cookies and data.
  • In Latvia
  • List of Countries
  • For 7 days
  • Water Temperature
  • Weather Map
  • Weather Widgets
  • user-avatar
    Login

    Hourly Weather Wien

    Today, 18 October, Friday

    Time Temperature Precipitation Wind Pressure Humidity
    00:00 +13°C° 0 mm 1 mps 743 mmHg 88%
    01:00 +12°C° 0 mm 1 mps 743 mmHg 89%
    02:00 +12°C° 0 mm 1 mps 743 mmHg 89%
    03:00 +11°C° 0 mm 1 mps 743 mmHg 90%
    04:00 +11°C° 0 mm 1 mps 743 mmHg 90%
    05:00 +11°C° 0 mm 1 mps 743 mmHg 90%
    06:00 +11°C° 0 mm 1 mps 743 mmHg 90%
    07:00 +11°C° 0 mm 1 mps 743 mmHg 90%
    08:00 +13°C° 0 mm 1 mps 743 mmHg 83%
    09:00 +14°C° 0 mm 1 mps 743 mmHg 76%
    10:00 +16°C° 0 mm 1 mps 743 mmHg 68%
    11:00 +18°C° 0 mm 1 mps 743 mmHg 64%
    12:00 +19°C° 0 mm 1 mps 742 mmHg 59%
    13:00 +20°C° 0 mm 1 mps 742 mmHg 55%
    14:00 +20°C° 0 mm 1 mps 742 mmHg 57%
    15:00 +19°C° 0 mm 1 mps 742 mmHg 59%
    16:00 +19°C° 0 mm 1 mps 741 mmHg 61%
    17:00 +18°C° 0 mm 1 mps 741 mmHg 66%
    18:00 +15°C° 0 mm 1 mps 741 mmHg 71%
    19:00 +14°C° 0 mm 1 mps 741 mmHg 76%
    20:00 +14°C° 0 mm 1 mps 742 mmHg 78%
    21:00 +12°C° 0 mm 0 mps 742 mmHg 79%
    22:00 +12°C° 0 mm 0 mps 742 mmHg 81%
    23:00 +12°C° 0 mm 0 mps 742 mmHg 82%

    Tomorrow, 19 October, Saturday

    Time Temperature Precipitation Wind Pressure Humidity
    00:00 +11°C° 0 mm 0 mps 742 mmHg 84%
    01:00 +11°C° 0 mm 0 mps 742 mmHg 85%
    02:00 +11°C° 0 mm 0 mps 742 mmHg 86%
    03:00 +12°C° 0 mm 1 mps 742 mmHg 87%
    04:00 +12°C° 0 mm 1 mps 742 mmHg 88%
    05:00 +12°C° 0 mm 1 mps 741 mmHg 89%
    06:00 +12°C° 0 mm 1 mps 741 mmHg 89%
    07:00 +12°C° 0 mm 1 mps 741 mmHg 90%
    08:00 +13°C° 0 mm 2 mps 741 mmHg 86%
    09:00 +14°C° 0 mm 2 mps 741 mmHg 81%
    10:00 +16°C° 0 mm 3 mps 741 mmHg 76%
    11:00 +17°C° 0 mm 2 mps 740 mmHg 71%
    12:00 +18°C° 0 mm 2 mps 740 mmHg 65%
    13:00 +19°C° 0 mm 2 mps 740 mmHg 60%
    14:00 +19°C° 0 mm 2 mps 740 mmHg 61%
    15:00 +20°C° 0 mm 1 mps 740 mmHg 62%
    16:00 +20°C° 0 mm 1 mps 739 mmHg 63%
    17:00 +18°C° 0 mm 1 mps 740 mmHg 68%
    18:00 +16°C° 0 mm 1 mps 740 mmHg 73%
    19:00 +15°C° 0 mm 1 mps 740 mmHg 78%
    20:00 +14°C° 0 mm 1 mps 740 mmHg 80%
    21:00 +14°C° 0 mm 1 mps 740 mmHg 82%
    22:00 +14°C° 0 mm 1 mps 740 mmHg 84%
    23:00 +13°C° 0 mm 1 mps 741 mmHg 85%

    Day after tomorrow, 20 October, Sunday

    Time Temperature Precipitation Wind Pressure Humidity
    00:00 +13°C° 0 mm 1 mps 741 mmHg 86%
    01:00 +13°C° 0 mm 1 mps 741 mmHg 88%
    02:00 +12°C° 0 mm 1 mps 741 mmHg 89%
    03:00 +12°C° 0 mm 1 mps 741 mmHg 90%
    04:00 +12°C° 0 mm 1 mps 741 mmHg 91%
    05:00 +12°C° 0 mm 1 mps 741 mmHg 91%
    06:00 +11°C° 0 mm 0 mps 741 mmHg 92%
    07:00 +10°C° 0 mm 0 mps 741 mmHg 92%
    08:00 +13°C° 0 mm 1 mps 741 mmHg 87%
    09:00 +14°C° 0 mm 1 mps 741 mmHg 82%
    10:00 +15°C° 0 mm 2 mps 741 mmHg 77%
    11:00 +17°C° 0 mm 2 mps 741 mmHg 71%
    12:00 +18°C° 0 mm 2 mps 740 mmHg 66%
    13:00 +20°C° 0 mm 2 mps 740 mmHg 60%
    14:00 +20°C° 0 mm 2 mps 740 mmHg 61%
    15:00 +19°C° 0 mm 2 mps 739 mmHg 63%
    16:00 +19°C° 0 mm 2 mps 739 mmHg 64%
    17:00 +18°C° 0 mm 2 mps 739 mmHg 69%
    18:00 +17°C° 0 mm 2 mps 740 mmHg 74%
    19:00 +15°C° 0 mm 1 mps 740 mmHg 80%
    20:00 +15°C° 0 mm 1 mps 740 mmHg 81%
    21:00 +14°C° 0 mm 1 mps 740 mmHg 83%
    22:00 +14°C° 0 mm 1 mps 740 mmHg 85%
    23:00 +14°C° 0 mm 1 mps 740 mmHg 85%

    21 October, Monday

    Time Temperature Precipitation Wind Pressure Humidity
    00:00 +13°C° 0 mm 1 mps 740 mmHg 85%
    01:00 +12°C° 0 mm 0 mps 740 mmHg 86%
    02:00 +13°C° 0 mm 1 mps 741 mmHg 86%
    03:00 +13°C° 0 mm 1 mps 741 mmHg 86%
    04:00 +13°C° 0 mm 1 mps 741 mmHg 85%
    05:00 +13°C° 0 mm 1 mps 742 mmHg 85%
    06:00 +12°C° 0 mm 0 mps 742 mmHg 85%
    07:00 +12°C° 0 mm 0 mps 743 mmHg 85%
    08:00 +15°C° 0 mm 1 mps 743 mmHg 77%
    09:00 +18°C° 0 mm 1 mps 743 mmHg 69%
    10:00 +20°C° 0 mm 1 mps 744 mmHg 61%
    11:00 +21°C° 0 mm 1 mps 744 mmHg 57%
    12:00 +21°C° 0 mm 2 mps 744 mmHg 54%
    13:00 +23°C° 0 mm 2 mps 745 mmHg 50%
    14:00 +21°C° 0 mm 2 mps 745 mmHg 53%
    15:00 +21°C° 0 mm 2 mps 745 mmHg 56%
    16:00 +20°C° 0 mm 2 mps 745 mmHg 59%
    17:00 +19°C° 0 mm 2 mps 746 mmHg 65%
    18:00 +18°C° 0 mm 2 mps 746 mmHg 71%
    19:00 +17°C° 0 mm 2 mps 747 mmHg 77%
    20:00 +16°C° 0 mm 2 mps 747 mmHg 79%
    21:00 +16°C° 0 mm 2 mps 747 mmHg 82%
    22:00 +15°C° 0 mm 2 mps 747 mmHg 85%
    23:00 +15°C° 0 mm 2 mps 748 mmHg 86%

    22 October, Tuesday

    Time Temperature Precipitation Wind Pressure Humidity
    00:00 +14°C° 0 mm 2 mps 748 mmHg 87%
    01:00 +14°C° 0 mm 2 mps 748 mmHg 88%
    02:00 +14°C° 0 mm 2 mps 748 mmHg 89%
    03:00 +14°C° 0 mm 2 mps 748 mmHg 89%
    04:00 +13°C° 0 mm 2 mps 748 mmHg 90%
    05:00 +13°C° 0 mm 2 mps 749 mmHg 90%
    06:00 +13°C° 0 mm 2 mps 749 mmHg 90%
    07:00 +13°C° 0 mm 2 mps 749 mmHg 90%
    08:00 +14°C° 0 mm 2 mps 750 mmHg 82%
    09:00 +16°C° 0 mm 2 mps 750 mmHg 75%
    10:00 +17°C° 0 mm 2 mps 750 mmHg 68%
    11:00 +18°C° 0 mm 2 mps 750 mmHg 64%
    12:00 +19°C° 0 mm 2 mps 750 mmHg 60%
    13:00 +20°C° 0 mm 2 mps 750 mmHg 56%
    14:00 +20°C° 0 mm 2 mps 749 mmHg 58%
    15:00 +20°C° 0 mm 2 mps 749 mmHg 61%
    16:00 +20°C° 0 mm 1 mps 749 mmHg 64%
    17:00 +19°C° 0 mm 1 mps 749 mmHg 69%
    18:00 +18°C° 0 mm 1 mps 749 mmHg 74%
    19:00 +15°C° 0 mm 1 mps 749 mmHg 80%
    20:00 +15°C° 0 mm 1 mps 749 mmHg 82%
    21:00 +15°C° 0 mm 1 mps 749 mmHg 83%
    22:00 +14°C° 0 mm 1 mps 749 mmHg 85%
    23:00 +14°C° 0 mm 2 mps 749 mmHg 86%

    23 October, Wednesday

    Time Temperature Precipitation Wind Pressure Humidity
    00:00 +14°C° 0 mm 2 mps 748 mmHg 86%
    01:00 +14°C° 0 mm 2 mps 748 mmHg 87%
    02:00 +13°C° 0 mm 3 mps 748 mmHg 86%
    03:00 +13°C° 0 mm 3 mps 748 mmHg 85%
    04:00 +13°C° 0 mm 4 mps 747 mmHg 84%
    05:00 +13°C° 0 mm 4 mps 747 mmHg 82%
    06:00 +13°C° 0 mm 5 mps 747 mmHg 80%
    07:00 +13°C° 0 mm 5 mps 747 mmHg 79%
    08:00 +14°C° 0 mm 6 mps 746 mmHg 73%
    09:00 +16°C° 0 mm 6 mps 746 mmHg 67%
    10:00 +17°C° 0 mm 7 mps 746 mmHg 61%
    11:00 +18°C° 0 mm 7 mps 745 mmHg 58%
    12:00 +20°C° 0 mm 7 mps 745 mmHg 55%
    13:00 +21°C° 0 mm 8 mps 745 mmHg 53%
    14:00 +21°C° 0 mm 7 mps 744 mmHg 55%
    15:00 +21°C° 0 mm 7 mps 743 mmHg 56%
    16:00 +20°C° 0 mm 7 mps 743 mmHg 58%
    17:00 +18°C° 0 mm 7 mps 743 mmHg 62%
    18:00 +18°C° 0 mm 7 mps 743 mmHg 65%
    19:00 +17°C° 0 mm 6 mps 743 mmHg 69%
    20:00 +16°C° 0 mm 6 mps 743 mmHg 71%
    21:00 +16°C° 0 mm 6 mps 742 mmHg 73%
    22:00 +16°C° 0 mm 6 mps 742 mmHg 76%
    23:00 +15°C° 0 mm 6 mps 742 mmHg 78%
    Show more